Regional Weather Roundup
Issued by NWS

Home | Current Version | Previous Version | Text Only | Print | Product List | Glossary On
Versions: 1 2 3 4 5 6 7 8 9 10 11 12 13 14 15 16 17 18 19 20 21 22 23 24 25 26 27 28 29 30 31 32 33 34 35 36 37 38 39 40 41 42 43 44 45 46 47 48 49 50
000
ASUS43 KDTX 300301
RWRMI
MICHIGAN HOURLY REGIONAL WEATHER ROUNDUP
NATIONAL WEATHER SERVICE DETROIT/PONTIAC MI
1100 PM EDT SUN MAR 29 2015

NOTE: "FAIR" INDICATES FEW OR NO CLOUDS BELOW 12,000 FEET WITH NO
SIGNIFICANT WEATHER AND/OR OBSTRUCTION TO VISIBILITY.

MIZ047>049-052>055-059>063-066>070-074>076-081>083-300400-
SOUTHEAST LOWER MICHIGAN

CITY           SKY/WX    TMP DP  RH WIND       PRES   REMARKS
ADRIAN         CLOUDY    39  30  70 SW14G23   29.79S WCI  31
ALMA           LGT SNOW  38  37  97 SW14G22   29.67S WCI  30
ANN ARBOR      CLOUDY    40  29  64 SW18G26   29.76F WCI  31
BAD AXE        CLOUDY    36  31  83 SW18G25   29.64F HAZE    WCI  25
CARO           LGT RAIN  36  33  90 SW14G23   29.65F WCI  27
DETROIT CITY   CLOUDY    45  27  49 SW23G32   29.75F
DETROIT        DRIZZLE   42  30  62 SW23G43   29.78S
FLINT          CLOUDY    40  33  76 SW14      29.70F WCI  32
GROSSE ILE     CLOUDY    41  30  65 SW21G29   29.78R
HILLSDALE      CLOUDY    40  36  87 SW10      29.77F WCI  33
HOWELL         CLOUDY    38  34  85 SW17G23   29.71F FOG     WCI  28

CITY           SKY/WX    TMP DP  RH WIND       PRES   REMARKS
JACKSON        CLOUDY    40  35  83 SW17G30   29.74F WCI  31
LAMBERTVILLE   CLOUDY    43  32  65 SW13G25   29.81S
LANSING        LGT RAIN  38  35  89 SW18G29   29.72S FOG     WCI  28
LAPEER         DRIZZLE   36  32  85 SW17G29   29.69F WCI  26
MASON          CLOUDY    38  34  86 SW14G25   29.72F FOG     WCI  30
MONROE         CLOUDY    43  30  61 SW20G28   29.77F
MT. CLEMENS    CLOUDY    42  28  57 SW21G35   29.71F
PONTIAC        LGT RAIN  37  30  75 SW16G26   29.71F WCI  28
PORT HOPE        N/A     37  30  75 SW12G23   29.61F WCI  29
PORT HURON     CLOUDY    39  28  65 S15G22    29.72F WCI  31
TRI CITIES     CLOUDY    38  34  85 SW20G31   29.64F WCI  28
TROY           CLOUDY    41  28  59 SW24G31   29.76F
SAGINAW HB     CLOUDY    37  34  87 SW18G28   29.65F FOG     WCI  27
$$
MIZ043>046-050>051-056>058-064>065-071>073-077>080-300400-
SOUTHWEST LOWER MICHIGAN

CITY           SKY/WX    TMP DP  RH WIND       PRES   REMARKS
BATTLE CREEK   LGT RAIN  41  37  86 W21G29    29.77R
BENTON HARBOR  CLOUDY    41  34  76 W16G23    29.86R
BIG RAPIDS     DRIZZLE   37  35  89 NW15G24   29.66R WCI  28
COLDWATER      CLOUDY    42  32  69 W21G28    29.79R
FREMONT        CLOUDY    38  33  83 W21G26    29.73R WCI  28
HOLLAND        CLOUDY    41  33  73 W14G23    29.80R
GRAND RAPIDS   CLOUDY    40  36  86 W17G31    29.74R WCI  31
IONIA          DRIZZLE   40  37  91 W24G33    29.71R WCI  29
KALAMAZOO      CLOUDY    42  35  76 W22G32    29.80R
LUDINGTON      CLOUDY    39  34  81 NW14G21   29.73R WCI  31
MARSHALL       CLOUDY    38  35  89 SW18      29.76S FOG     WCI  28
MOUNT PLEASANT CLOUDY    38  36  93 W12G21    29.64R WCI  30
MUSKEGON       CLOUDY    40  33  76 W21G28    29.77R WCI  30
SOUTH HAVEN    CLOUDY    41  34  76 W12G20    29.84R
$$
MIZ016>042-300400-
NORTHERN LOWER MICHIGAN

CITY           SKY/WX    TMP DP  RH WIND       PRES   REMARKS
ALPENA         MIX PCPN  36  31  82 SW8       29.53F WCI  30
BEAVER ISLAND  CLOUDY    34  32  94 W13G18    29.56R WCI  25
BELLAIRE       MIX PCPN  37  34  90 W9G21     29.60R WCI  30
CADILLAC       FLURRIES  35  33  92 W14G21    29.61R WCI  25
CHARLEVOIX     CLOUDY    35  34  96 W22G28    29.60R WCI  23
FRANKFORT      CLOUDY    39  32  75 NW15G21   29.68R WCI  31
GAYLORD        LGT SNOW  33  33 100 W17G26    29.53R FOG     WCI  22
GRAYLING       FLURRIES  33  32  94 W12G20    29.56S WCI  25
HARBOR SPRINGS LGT SNOW  33  32  96 W13G21    29.54R WCI  24
HOUGHTON LAKE  CLOUDY    34  32  92 W16G24    29.58R WCI  24
MANISTEE       CLOUDY    37  30  75 W21G30    29.70R WCI  27
OSCODA         LGT SNOW  34  32  92 SW15G22   29.58F WCI  24
PELLSTON       MIX PCPN  35  32  88 W17G25    29.53R WCI  25
ROGERS CITY    LGT RAIN  34  33  97 SW12G18   29.52S WCI  25
TRAVERSE CITY  LGT RAIN  38  33  82 W20G30    29.62R WCI  28
$$
MIZ007>008-015-300400-
EASTERN UPPER MICHIGAN

CITY           SKY/WX    TMP DP  RH WIND       PRES   REMARKS
KINROSS        CLOUDY    34  32  93 W12       29.46S WCI  25
MACKINAC ISLAN CLOUDY    33  33 100 W23G30    29.49S WCI  21
NEWBERRY       LGT SNOW  32  32 100 W15G22    29.51R WCI  22
S. S. MARIE    LGT SNOW  33  31  92 W12G20    29.45S FOG     WCI  24
$$
MIZ004>006-011>014-085-300400-
CENTRAL UPPER MICHIGAN

CITY           SKY/WX    TMP DP  RH WIND       PRES   REMARKS
MANISTIQUE     LGT RAIN  34  33  96 NW16G24   29.57R WCI  24
ESCANABA       PTCLDY    36  32  87 W13G18    29.64R WCI  27
MENOMINEE      CLOUDY    39  30  70 NW12G20   29.70R WCI  32
SAWYER-GWINN   LGT RAIN  35  32  90 NW17G25   29.62R WCI  24
$$
MIZ001>003-009>011-084-300400-
WESTERN UPPER MICHIGAN

CITY           SKY/WX    TMP DP  RH WIND       PRES   REMARKS
IRON MOUNTAIN  MOCLDY    37  29  72 NW24G39   29.67R WCI  26
HOUGHTON       MOCLDY    35  29  78 NW22      29.66R WCI  23
COPPER HARBOR    N/A     36  31  82 N13G20    29.63R WCI  27
IRONWOOD       PTCLDY    37  28  70 W9        29.76R WCI  31
$$

ABBREVIATIONS USED IN REMARKS
   TC - TEMPERATURE IN CELSIUS
  WCI - WIND CHILL INDEX
   HX - HEAT INDEX
  VSB - VISIBILITY




USA.gov is the U.S. government's official web portal to all federal, state and local government web resources and services.